Greybull, WY

11:15 PM MST on February 20, 2017 (GMT -0700)
South Big Horn County

Weather History for KGEY - June, 2013

Change the Weather History Date:

Tuesday, June 18, 2013

  Actual Average Record
Temperature  
Mean Temperature 75 °F 67 °F  
Max Temperature 92 °F 82 °F 99 °F (2016)
Min Temperature 58 °F 52 °F 42 °F (2010)
Degree Days  
Heating Degree Days 0 2  
Month to date heating degree days 32 59  
Since 1 June heating degree days 32 59  
Since 1 July heating degree days 7651 7739  
Cooling Degree Days 10 4  
Month to date cooling degree days 65 46  
Year to date cooling degree days 92 66  
Since 1 June cooling degree days 65 46  
Growing Degree Days 26 (Base 50)    
Moisture  
Dew Point 39 °F    
Average Humidity 33    
Maximum Humidity 55    
Minimum Humidity 10    
Precipitation  
Precipitation T in 0.03 in 0.10 in (2004)
Month to date precipitation 0.38 0.95  
Year to date precipitation 2.28 4.12  
Sea Level Pressure  
Sea Level Pressure 29.77 in    
Wind  
Wind Speed 8 mph (SSE)    
Max Wind Speed 29 mph    
Max Gust Speed 35 mph    
Visibility 10 miles    
Events      
T = Trace of Precipitation, MM = Missing Value Source: NWS Daily Summary

Daily Weather History Graph

Daily Weather History Graph

Search for Another Location

Airport or City:

Trip Planner

Search our weather history database for the weather conditions in past years. The results will help you decide how hot, cold, wet, or windy it might be!

Date:

Astronomy

Jun. 18, 2013 Rise Set
Actual Time 5:27 AM MDT 9:00 PM MDT
Civil Twilight 4:50 AM MDT 9:37 PM MDT
Nautical Twilight 4:01 AM MDT 10:25 PM MDT
Astronomical Twilight 2:57 AM MDT 11:29 PM MDT
Moon 3:39 PM MDT (6/18) 1:47 AM MDT (6/18)
Length of Visible Light 16h 46m
Length of Day
15h 33m
Waxing Gibbous, 71% of the Moon is Illuminated
Jun 18
Waxing Gibbous
Jun 23
Full
Jun 29
Last Quarter
Jul 8
New
Jul 15
First Quarter

Hourly Weather History & Observations

Time (MDT) Temp. Dew Point Humidity Pressure Visibility Wind Dir Wind Speed Gust Speed Precip Events Conditions
12:53 AM 68.0 °F 48.0 °F 49% 29.89 in 10.0 mi ENE 3.5 mph - N/A   Clear
1:53 AM 66.9 °F 48.0 °F 51% 29.88 in 10.0 mi SE 3.5 mph - N/A   Clear
2:53 AM 63.0 °F 45.0 °F 52% 29.89 in 10.0 mi Calm Calm - N/A   Clear
3:53 AM 61.0 °F 43.0 °F 52% 29.89 in 10.0 mi SSE 4.6 mph - N/A   Clear
4:53 AM 60.1 °F 41.0 °F 49% 29.89 in 10.0 mi ESE 4.6 mph - N/A   Clear
5:53 AM 60.1 °F 41.0 °F 49% 29.89 in 10.0 mi ESE 4.6 mph - N/A   Clear
6:53 AM 60.1 °F 44.1 °F 55% 29.88 in 10.0 mi SSE 5.8 mph - 0.00 in   Scattered Clouds
7:53 AM 70.0 °F 43.0 °F 38% 29.83 in 10.0 mi ESE 5.8 mph 20.7 mph N/A   Partly Cloudy
8:53 AM 73.0 °F 41.0 °F 31% 29.83 in 10.0 mi Variable 3.5 mph - N/A   Clear
9:53 AM 80.1 °F 43.0 °F 27% 29.81 in 10.0 mi South 11.5 mph - N/A   Clear
10:53 AM 82.0 °F 41.0 °F 23% 29.80 in 10.0 mi South 9.2 mph - N/A   Clear
11:53 AM 86.0 °F 37.0 °F 18% 29.77 in 10.0 mi SSE 10.4 mph - N/A   Clear
12:53 PM 88.0 °F 37.9 °F 17% 29.75 in 10.0 mi SE 11.5 mph 21.9 mph N/A   Clear
1:53 PM 88.0 °F 30.9 °F 13% 29.72 in 10.0 mi SSE 4.6 mph - N/A   Clear
2:53 PM 89.1 °F 27.0 °F 11% 29.70 in 10.0 mi South 12.7 mph 20.7 mph N/A   Clear
3:53 PM 91.0 °F 30.9 °F 12% 29.68 in 10.0 mi SW 8.1 mph - N/A   Clear
4:53 PM 89.1 °F 32.0 °F 13% 29.69 in 10.0 mi West 19.6 mph 29.9 mph N/A   Clear
5:53 PM 86.0 °F 30.9 °F 14% 29.68 in 10.0 mi West 17.3 mph - N/A   Clear
6:53 PM 82.9 °F 36.0 °F 19% 29.67 in 10.0 mi WNW 20.7 mph 29.9 mph N/A   Clear
7:53 PM 80.1 °F 39.0 °F 23% 29.67 in 10.0 mi South 15.0 mph - N/A   Clear
8:53 PM 78.1 °F 39.0 °F 25% 29.66 in 10.0 mi SE 18.4 mph 25.3 mph N/A   Clear
9:53 PM 73.9 °F 39.0 °F 28% 29.67 in 10.0 mi East 4.6 mph - N/A   Clear
10:53 PM 73.0 °F 37.0 °F 27% 29.66 in 10.0 mi SSE 6.9 mph - N/A   Clear
11:53 PM 70.0 °F 41.0 °F 35% 29.66 in 10.0 mi Calm Calm - N/A   Clear